Location: Sedan
(39.2354°N, 78.5718°W)
Time: 13:50:34
(UTC+00:00)

Envisat - Pass Details

Date: 07 December 2021
Orbit: 764 x 766 km, 98.2° (Epoch: 19 January)

Event Time Altitude Azimuth Distance (km) Brightness Sun altitude
Rises 10:21:59 0° 11° (N) 3,240 6.2 -22.3°
Reaches altitude 10° 10:24:18 10° 10° (N) 2,309 5.5 -21.9°
Maximum altitude 10:29:23 78° 285° (WNW) 786 2.8 -20.9°
Drops below altitude 10° 10:34:26 10° 199° (SSW) 2,292 5.4 -20.0°
Sets 10:36:44 0° 198° (SSW) 3,214 6.2 -19.5°
